Total_Precipitation_Accumulation
0.64 0.66 0.70 0.73 0.80 0.89 0.94 1.03 1.15 1.19 1.08 0.93 0.92 0.89 0.82 0.86 1.05 0.90 0.82 0.82 0.71 0.62 0.56 0.53 0.51 0.49 0.47 0.44 0.42 0.39 0.40 0.44 0.56 0.68 0.82 0.95 1.04 1.11
0.59 0.57 0.58 0.59 0.64 0.71 0.78 0.82 0.90 1.00 0.99 0.84 0.76 0.75 0.76 0.79 1.00 0.87 0.87 0.86 0.68 0.55 0.46 0.41 0.39 0.38 0.38 0.37 0.36 0.36 0.37 0.40 0.48 0.55 0.69 0.82 0.91 1.04
0.58 0.57 0.55 0.53 0.55 0.57 0.63 0.68 0.74 0.80 0.92 0.87 0.74 0.70 0.73 0.77 0.81 0.73 0.71 0.66 0.60 0.58 0.47 0.41 0.37 0.35 0.33 0.35 0.36 0.38 0.40 0.45 0.50 0.55 0.64 0.77 0.85 0.89
0.57 0.56 0.52 0.51 0.53 0.53 0.55 0.58 0.66 0.76 0.88 0.93 0.82 0.72 0.68 0.68 0.68 0.65 0.55 0.49 0.50 0.57 0.49 0.41 0.36 0.34 0.38 0.34 0.31 0.34 0.39 0.48 0.55 0.58 0.64 0.73 0.78 0.80
0.52 0.56 0.55 0.53 0.51 0.51 0.54 0.57 0.64 0.74 0.87 0.92 0.84 0.76 0.71 0.70 0.76 0.71 0.61 0.65 0.55 0.53 0.48 0.43 0.39 0.37 0.58 0.61 0.36 0.31 0.34 0.46 0.52 0.55 0.64 0.68 0.67 0.64
0.38 0.48 0.54 0.55 0.52 0.56 0.58 0.60 0.64 0.73 0.80 0.85 0.79 0.71 0.70 0.71 0.78 0.84 0.79 0.71 0.62 0.43 0.46 0.42 0.40 0.44 0.79 1.33 0.78 0.45 0.39 0.43 0.48 0.52 0.55 0.53 0.48 0.43
0.29 0.36 0.43 0.48 0.50 0.51 0.53 0.58 0.66 0.74 0.79 0.83 0.78 0.71 0.68 0.76 0.83 0.81 0.78 0.74 0.62 0.49 0.54 0.49 0.63 0.95 1.48 2.11 1.64 0.98 0.72 0.60 0.51 0.50 0.50 0.48 0.41 0.34
0.29 0.31 0.31 0.35 0.36 0.35 0.41 0.49 0.59 0.68 0.78 0.84 0.82 0.78 0.71 0.75 0.82 0.82 0.83 0.82 0.73 0.53 0.53 0.55 0.82 1.58 2.27 2.63 2.19 1.38 1.04 0.81 0.66 0.67 0.67 0.57 0.44 0.33
0.34 0.33 0.29 0.30 0.37 0.39 0.39 0.42 0.51 0.57 0.69 0.84 0.89 0.80 0.75 0.78 0.88 0.93 0.89 0.88 0.85 0.66 0.67 0.72 0.99 1.84 2.17 2.37 2.17 1.48 1.18 0.99 0.87 0.89 0.86 0.65 0.44 0.33
0.26 0.29 0.34 0.39 0.37 0.34 0.33 0.43 0.53 0.62 0.66 0.70 0.81 0.75 0.70 0.71 0.78 0.84 0.83 0.84 0.78 0.69 0.70 0.84 1.10 1.70 1.79 1.93 1.98 1.53 1.24 1.11 1.04 1.01 0.92 0.68 0.48 0.37
0.19 0.21 0.24 0.30 0.28 0.30 0.39 0.54 0.60 0.71 0.74 0.85 0.84 0.77 0.74 0.72 0.64 0.65 0.83 0.97 0.93 0.72 0.65 0.81 1.04 1.36 1.47 1.60 1.60 1.48 1.35 1.25 1.15 1.08 0.96 0.70 0.52 0.44
0.21 0.24 0.21 0.17 0.21 0.27 0.39 0.59 0.74 0.78 0.91 1.10 1.05 0.98 0.90 0.84 0.71 0.69 0.91 1.09 1.08 0.90 0.70 0.75 0.93 1.09 1.32 1.37 1.30 1.25 1.33 1.38 1.30 1.25 1.08 0.78 0.52 0.44
0.24 0.29 0.28 0.22 0.22 0.25 0.37 0.58 0.74 0.76 0.97 1.24 1.14 0.97 0.89 0.83 0.80 0.80 0.88 0.96 0.95 0.91 0.70 0.75 0.94 1.04 1.16 1.24 1.22 1.23 1.23 1.30 1.34 1.40 1.29 0.99 0.65 0.46
0.34 0.32 0.31 0.29 0.27 0.33 0.46 0.64 0.78 0.92 1.09 1.19 1.01 0.83 0.73 0.70 0.70 0.65 0.64 0.65 0.70 0.71 0.66 0.72 0.95 1.12 1.12 1.05 1.16 1.19 1.21 1.27 1.33 1.41 1.41 1.19 0.90 0.68
0.31 0.35 0.34 0.32 0.40 0.60 0.72 0.83 0.95 1.12 1.16 1.03 0.88 0.76 0.63 0.59 0.55 0.54 0.52 0.55 0.58 0.53 0.47 0.53 0.75 0.95 1.02 0.98 1.07 1.09 1.20 1.41 1.46 1.46 1.42 1.27 1.05 0.83
0.27 0.39 0.47 0.51 0.66 0.87 1.00 1.09 1.17 1.18 1.03 0.92 0.81 0.70 0.58 0.55 0.54 0.48 0.50 0.52 0.55 0.56 0.48 0.47 0.60 0.77 0.89 0.88 0.97 1.09 1.16 1.55 1.68 1.51 1.44 1.41 1.20 0.98
0.27 0.42 0.57 0.63 0.77 0.93 1.05 1.11 1.14 1.12 1.03 0.90 0.79 0.69 0.60 0.55 0.52 0.44 0.44 0.45 0.48 0.50 0.50 0.51 0.57 0.63 0.68 0.74 0.91 1.06 1.20 1.44 1.58 1.40 1.26 1.37 1.31 1.09
0.33 0.53 0.65 0.67 0.75 0.85 0.94 1.02 1.01 0.97 0.90 0.85 0.80 0.73 0.64 0.55 0.51 0.46 0.42 0.43 0.46 0.46 0.47 0.46 0.44 0.42 0.48 0.63 0.88 0.99 1.05 1.24 1.30 1.16 0.98 1.05 1.22 1.08
0.40 0.59 0.69 0.75 0.79 0.83 0.84 0.87 0.92 0.91 0.83 0.77 0.72 0.66 0.57 0.50 0.47 0.44 0.40 0.38 0.39 0.39 0.36 0.31 0.27 0.25 0.32 0.65 0.94 1.03 0.97 0.98 0.95 0.92 0.85 0.81 0.95 0.96
0.43 0.58 0.68 0.74 0.78 0.80 0.77 0.74 0.77 0.80 0.73 0.65 0.60 0.55 0.50 0.46 0.42 0.40 0.36 0.29 0.28 0.27 0.27 0.24 0.22 0.23 0.29 0.50 0.92 1.15 0.96 0.72 0.65 0.69 0.70 0.69 0.82 0.88
0.39 0.51 0.61 0.66 0.66 0.67 0.67 0.65 0.66 0.68 0.63 0.58 0.54 0.50 0.46 0.41 0.37 0.31 0.26 0.19 0.21 0.23 0.23 0.27 0.28 0.22 0.19 0.26 0.55 0.86 0.91 0.81 0.61 0.52 0.51 0.54 0.57 0.54
0.34 0.45 0.54 0.56 0.55 0.52 0.49 0.49 0.50 0.50 0.50 0.48 0.47 0.45 0.41 0.36 0.30 0.24 0.22 0.21 0.22 0.20 0.20 0.22 0.21 0.18 0.18 0.24 0.41 0.62 0.69 0.61 0.55 0.54 0.49 0.39 0.34 0.42
0.32 0.36 0.42 0.45 0.45 0.41 0.36 0.34 0.35 0.37 0.38 0.38 0.39 0.38 0.33 0.29 0.23 0.18 0.16 0.13 0.13 0.14 0.13 0.16 0.16 0.15 0.15 0.17 0.23 0.32 0.36 0.33 0.29 0.32 0.45 0.49 0.42 0.49